Location: Krakow
(50.0830°N, 19.9170°E)
Time: 09:32:00
(UTC+01:00)

Vanguard 2 Rocket - All Passes

Search period start: 05 December 2023 00:00
Search period end: 15 December 2023 00:00
Orbit: 552 x 3312 km, 32.9° (Epoch: 04 December)

Date Brightness Start Highest point End Pass type
(mag) Time Alt. Az. Time Alt. Az. Time Alt. Az.
05 Dec - 12:13:52 10° S 12:25:31 23° SE 12:38:51 10° E daylight
05 Dec - 14:23:34 10° SW 14:39:50 40° SSE 14:56:54 10° ESE daylight
05 Dec - 16:37:32 10° WSW 16:55:37 45° S 17:11:31 10° ESE visible
05 Dec - 18:54:26 10° W 19:10:34 33° SSW 19:23:11 10° SSE visible
05 Dec - 21:16:48 10° WSW 21:23:04 13° SW 21:28:33 10° SSW visible
06 Dec - 11:15:20 10° SSE 11:23:22 16° SE 11:32:28 10° ESE daylight
06 Dec - 13:22:04 10° SSW 13:36:39 35° SSE 13:53:17 10° E daylight
06 Dec - 15:34:37 10° WSW 15:52:06 45° S 16:09:09 10° ESE daylight
06 Dec - 17:50:15 10° W 18:07:42 39° SSW 18:22:11 10° SE visible
06 Dec - 20:09:24 10° W 20:21:19 21° SW 20:31:02 10° S visible
07 Dec - 12:21:20 10° SSW 12:33:53 28° SE 12:48:57 10° E daylight
07 Dec - 14:32:15 10° SW 14:48:35 43° SSE 15:06:13 10° ESE daylight
07 Dec - 16:46:40 10° WSW 17:04:25 43° SSW 17:20:31 10° SE visible
07 Dec - 19:04:02 10° W 19:19:04 28° SW 19:31:23 10° SSE visible
08 Dec - 11:21:40 10° S 11:31:35 21° SE 11:43:38 10° E daylight
08 Dec - 13:30:32 10° SW 13:45:17 39° SSE 14:02:43 10° E daylight
08 Dec - 15:43:40 10° WSW 16:00:55 45° S 16:18:15 10° ESE visible
08 Dec - 17:59:38 10° W 18:16:19 35° SSW 18:30:43 10° SSE visible
08 Dec - 20:20:30 10° WSW 20:29:33 16° SW 20:37:27 10° SSW visible
09 Dec - 10:24:05 10° SSE 10:29:47 13° SE 10:36:15 10° ESE daylight
09 Dec - 12:29:29 10° SSW 12:42:22 33° SSE 12:58:35 10° E daylight
09 Dec - 14:41:13 10° WSW 14:57:23 45° S 15:15:22 10° ESE daylight
09 Dec - 16:55:57 10° WSW 17:13:10 40° SSW 17:29:15 10° SE visible
09 Dec - 19:14:06 10° W 19:27:26 23° SW 19:38:55 10° S visible
10 Dec - 11:29:13 10° SSW 11:39:56 26° SE 11:53:46 10° E daylight
10 Dec - 13:39:22 10° SW 13:54:01 42° SSE 14:11:56 10° ESE daylight
10 Dec - 15:52:54 10° WSW 16:09:44 44° S 16:27:06 10° SE visible
10 Dec - 18:09:18 10° W 18:24:50 30° SSW 18:38:46 10° SSE visible
10 Dec - 20:35:45 10° WSW 20:37:40 10° SW 20:39:31 10° SW visible
11 Dec - 10:30:06 10° S 10:38:01 18° SE 10:47:54 10° E daylight
11 Dec - 12:38:05 10° SW 12:50:59 37° SSE 13:07:56 10° E daylight
11 Dec - 14:50:24 10° WSW 15:06:14 45° S 15:24:20 10° ESE daylight
11 Dec - 17:05:26 10° W 17:21:49 36° SSW 17:37:37 10° SSE visible
11 Dec - 19:25:00 10° W 19:35:40 17° SW 19:45:22 10° SSW visible
12 Dec - 09:35:30 10° SE 09:36:34 10° SE 09:37:40 10° ESE daylight
12 Dec - 11:37:27 10° SSW 11:48:27 30° SSE 12:03:22 10° E daylight
12 Dec - 13:48:26 10° WSW 14:02:50 44° S 14:20:58 10° ESE daylight
12 Dec - 16:02:17 10° WSW 16:18:31 40° SSW 16:35:41 10° SE visible
12 Dec - 18:19:23 10° W 18:33:14 24° SW 18:46:10 10° S visible
13 Dec - 10:37:37 10° S 10:46:25 23° SE 10:58:10 10° E daylight
13 Dec - 12:47:00 10° SW 12:59:46 40° SSE 13:17:03 10° ESE daylight
13 Dec - 14:59:43 10° WSW 15:15:05 43° S 15:33:04 10° SE daylight
13 Dec - 17:15:11 10° W 17:30:23 31° SSW 17:45:31 10° SSE visible
13 Dec - 19:38:17 10° WSW 19:43:50 12° SW 19:49:10 10° SW visible
14 Dec - 09:39:13 10° SSE 09:44:52 15° SE 09:51:45 10° ESE daylight
14 Dec - 11:46:08 10° SW 11:57:07 34° SSE 12:12:40 10° E daylight
14 Dec - 13:57:43 10° WSW 14:11:44 43° S 14:29:48 10° ESE daylight
14 Dec - 16:11:52 10° W 16:27:14 36° SSW 16:43:54 10° SE visible
14 Dec - 18:30:15 10° WSW 18:41:33 19° SW 18:52:29 10° S visible
